Aurora, CO

6:09 AM MST on February 23, 2017 (GMT -0700)
Buckley Air Force Base

Weather History for KBKF - October, 2012

Change the Weather History Date:

Friday, October 5, 2012

  Actual Average Record
Temperature  
Mean Temperature 34 °F -  
Max Temperature 39 °F 67 °F 84 °F (1997)
Min Temperature 28 °F 40 °F 25 °F (2013)
Degree Days  
Heating Degree Days 32    
Moisture  
Dew Point 31 °F    
Average Humidity 88    
Maximum Humidity 100    
Minimum Humidity 70    
Precipitation  
Precipitation 0.02 in - - ()
Sea Level Pressure  
Sea Level Pressure 30.22 in    
Wind  
Wind Speed 7 mph (North)    
Max Wind Speed 14 mph    
Max Gust Speed -    
Visibility 7 miles    
Events Snow    
Averages and records for this station are not official NWS values.
T = Trace of Precipitation, MM = Missing Value Source: NWS Daily Summary

Daily Weather History Graph

Daily Weather History Graph

Search for Another Location

Airport or City:

Trip Planner

Search our weather history database for the weather conditions in past years. The results will help you decide how hot, cold, wet, or windy it might be!

Date:

Astronomy

Oct. 05, 2012 Rise Set
Actual Time 6:59 AM MDT 6:34 PM MDT
Civil Twilight 6:32 AM MDT 7:01 PM MDT
Nautical Twilight 6:01 AM MDT 7:32 PM MDT
Astronomical Twilight 5:30 AM MDT 8:03 PM MDT
Moon 10:00 PM MDT (10/5) 12:08 PM MDT (10/5)
Length of Visible Light 12h 28m
Length of Day
11h 34m
Waning Gibbous, 73% of the Moon is Illuminated
Oct 5
Waning Gibbous
Oct 8
Last Quarter
Oct 15
New
Oct 21
First Quarter
Oct 29
Full

Hourly Weather History & Observations

Time (MDT) Temp. Windchill Dew Point Humidity Pressure Visibility Wind Dir Wind Speed Gust Speed Precip Events Conditions
12:55 AM 35.6 °F 32.8 °F 26.6 °F 70% 30.15 in 25.0 mi SSW 3.5 mph - N/A   Mostly Cloudy
1:55 AM 33.8 °F - 26.6 °F 75% 30.12 in 25.0 mi SSW 2.3 mph - N/A   Scattered Clouds
2:55 AM 32.0 °F 25.6 °F 26.6 °F 80% 30.12 in 25.0 mi North 6.9 mph - N/A   Mostly Cloudy
3:55 AM 33.8 °F 26.4 °F 26.6 °F 75% 30.15 in 7.0 mi NW 9.2 mph - N/A   Overcast
4:16 AM 32.0 °F 24.2 °F 26.6 °F 80% 30.17 in 7.0 mi NNW 9.2 mph - N/A Snow Light Snow
4:48 AM 32.0 °F 23.6 °F 28.4 °F 87% 30.20 in 7.0 mi NW 10.4 mph - N/A   Overcast
4:55 AM 32.0 °F 23.6 °F 26.6 °F 80% 30.17 in 7.0 mi NW 10.4 mph - N/A   Overcast
5:14 AM 32.0 °F 23.6 °F 26.6 °F 80% 30.20 in 1.0 mi NW 10.4 mph - N/A Snow Light Snow
5:55 AM 30.2 °F 24.3 °F 28.4 °F 93% 30.20 in 1.0 mi SW 5.8 mph - N/A Snow Light Snow
6:08 AM 30.2 °F 21.9 °F 28.4 °F 93% 30.19 in 7.0 mi SSW 9.2 mph - N/A Snow Light Snow
6:32 AM 30.2 °F 22.6 °F 30.2 °F 100% 30.17 in 7.0 mi SSW 8.1 mph - N/A   Mostly Cloudy
6:55 AM 28.4 °F 21.2 °F 28.4 °F 100% 30.20 in 7.0 mi SW 6.9 mph - N/A   Mostly Cloudy
7:55 AM 30.2 °F 22.6 °F 28.4 °F 93% 30.17 in 25.0 mi SSW 8.1 mph - N/A   Scattered Clouds
8:55 AM 33.8 °F 29.6 °F 28.4 °F 81% 30.20 in 25.0 mi South 4.6 mph - N/A   Partly Cloudy
9:55 AM 37.4 °F 32.8 °F 32.0 °F 81% 30.21 in 25.0 mi NE 5.8 mph - N/A   Scattered Clouds
10:55 AM 37.4 °F 29.3 °F 32.0 °F 81% 30.22 in 10.0 mi North 12.7 mph - N/A   Mostly Cloudy
11:29 AM 37.4 °F 30.3 °F 32.0 °F 81% 30.21 in 10.0 mi North 10.4 mph - N/A   Overcast
11:55 AM 39.2 °F 33.0 °F 32.0 °F 75% 30.22 in 10.0 mi NNW 9.2 mph - N/A   Overcast
12:55 PM 37.4 °F 28.9 °F 32.0 °F 81% 30.22 in 10.0 mi North 13.8 mph - N/A   Overcast
1:55 PM 37.4 °F 28.9 °F 32.0 °F 81% 30.24 in 10.0 mi North 13.8 mph - N/A   Overcast
2:55 PM 37.4 °F 29.8 °F 32.0 °F 81% 30.25 in 10.0 mi North 11.5 mph - N/A   Overcast
3:55 PM 37.4 °F 28.9 °F 32.0 °F 81% 30.25 in 10.0 mi NNW 13.8 mph - N/A   Overcast
4:55 PM 35.6 °F 29.2 °F 33.8 °F 93% 30.28 in 7.0 mi NNW 8.1 mph - N/A   Light Drizzle
5:40 PM 35.6 °F 30.7 °F 35.6 °F 100% 30.25 in 5.0 mi North 5.8 mph - N/A   Light Drizzle
5:55 PM 35.6 °F 29.9 °F 35.6 °F 100% 30.29 in 3.0 mi North 6.9 mph - N/A   Light Drizzle
6:34 PM 35.6 °F 29.9 °F 33.8 °F 93% 30.26 in 3.0 mi NE 6.9 mph - N/A   Light Drizzle
6:55 PM 33.8 °F 24.8 °F 33.8 °F 100% 30.30 in 3.0 mi NE 12.7 mph - N/A   Light Drizzle
7:55 PM 33.8 °F 28.6 °F 33.8 °F 100% 30.33 in 5.0 mi NE 5.8 mph - N/A   Light Drizzle
8:55 PM 32.0 °F 22.1 °F 32.0 °F 100% 30.31 in 6.0 mi ENE 13.8 mph - N/A   Light Drizzle
9:55 PM 32.0 °F 25.6 °F 32.0 °F 100% 30.30 in 5.0 mi ENE 6.9 mph - N/A   Light Drizzle
10:55 PM 32.0 °F 26.4 °F 32.0 °F 100% 30.27 in 7.0 mi East 5.8 mph - N/A   Light Drizzle
11:14 PM 32.0 °F 27.5 °F 32.0 °F 100% 30.25 in 7.0 mi East 4.6 mph - N/A   Overcast
11:55 PM 32.0 °F 26.4 °F 32.0 °F 100% 30.25 in 7.0 mi East 5.8 mph - N/A   Overcast